This demonstration page uses our WeatherBlox Daily Observations layout. Learn more.

Left ArrowRight Arrow

30.00354, -91.81873

Hourly Observations for July 26, 2022

Temp ( °F °C ) Dew Point ( °F °C ) Humidity (%) Winds ( mph kmh ) Pressure ( in mb ) Visibility ( mi km ) Precip ( " mm )
12:53 am 00:53 Mostly Clear 77 25 74 23.3 90 90 SE 5 7 30.04 1017 10 16 0.00 0.00
1:53 am 01:53 Clear 77 25 74 23.3 90 90 ESE 3 6 30.03 1017 10 16 0.00 0.00
2:53 am 02:53 Mostly Clear 77 25 74 23.3 90 90 SE 6 9 30.02 1017 10 16 0.00 0.00
3:53 am 03:53 Clear 76 24.4 74 23.3 94 94 Calm 30.02 1017 10 16 0.00 0.00
4:53 am 04:53 Clear 76 24.4 74 23.3 94 94 SE 5 7 30.01 1016 10 16 0.00 0.00
5:53 am 05:53 Clear 76 24.4 74 23.3 94 94 SE 3 6 30.02 1017 10 16 0.00 0.00
6:53 am 06:53 Sunny 77 25 74 23.3 90 90 Calm 30.04 1017 10 16 0.00 0.00
7:53 am 07:53 Sunny 80 26.7 76 24.4 87 87 ESE 5 7 30.05 1018 10 16 0.00 0.00
8:53 am 08:53 Sunny 85 29.4 77 25 77 77 Calm 30.07 1018 10 16 0.00 0.00
9:53 am 09:53 Sunny 88 31.1 75 23.9 66 66 Calm 30.07 1018 10 16 0.00 0.00
10:30 am 10:30 Mostly Cloudy with Thunderstorms 81 27.2 72 22.2 74 74 S 21 33 30.10 1019 1 2 0.15 3.81
10:38 am 10:38 Mostly Cloudy with Strong Thunderstorms 78 25.6 70 21.1 76 76 ESE 9 15 30.11 1020 1 1 0.46 11.68
10:45 am 10:45 Cloudy with Heavy Rain 78 25.6 70 21.1 76 76 E 14 22 30.10 1019 1 1 0.58 14.73
10:50 am 10:50 Cloudy with Heavy Rain 81 27 70 21 70 70 E 9 15 30.10 1019 1 2 0.69 17.53
10:53 am 10:53 Cloudy with Heavy Rain 81 27.2 71 21.7 72 72 ENE 10 17 30.09 1019 1 2 0.73 18.54
11:02 am 11:02 Cloudy with Light Rain 79 26.1 71 21.7 77 77 ENE 5 7 30.10 1019 3 5 0.02 0.51
11:53 am 11:53 Mostly Cloudy 87 30.6 74 23.3 65 65 Calm 30.09 1019 10 16 0.02 0.51
12:06 pm 12:06 Mostly Cloudy with Nearby Thunderstorms 88 31.1 76 24.4 68 68 VRB 3 6 30.09 1019 10 16 0.00 0.00
12:24 pm 12:24 Partly Cloudy 88 31.1 75 23.9 66 66 undefined N/A 30.09 1019 10 16 0.00 0.00
12:33 pm 12:33 Mostly Cloudy with Nearby Thunderstorms 85 29.4 74 23.3 70 70 WNW 8 13 30.09 1019 10 16 0.00 0.00
12:45 pm 12:45 Cloudy with Nearby Thunderstorms 80 26.7 74 23.3 82 82 SSW 18 30 30.10 1019 2 3 0.15 3.81
12:53 pm 12:53 Cloudy with Heavy Rain 76 24.4 73 22.8 91 91 S 21 33 30.09 1019 1 1 0.55 13.97
1:00 pm 13:00 Cloudy with Heavy Rain 76 24.4 72 22.2 88 88 SSW 9 15 30.09 1019 1 1 0.23 5.84
1:17 pm 13:17 Cloudy with Light Rain 78 25.6 72 22.2 82 82 S 5 7 30.09 1019 2 3 0.46 11.68
1:25 pm 13:25 Cloudy with Light Rain 79 26.1 73 22.8 82 82 Calm 30.09 1019 9 14 0.46 11.68
1:53 pm 13:53 Mostly Cloudy with Light Rain 83 28.3 73 22.8 72 72 Calm 30.08 1019 10 16 0.46 11.68
2:53 pm 14:53 Sunny 84 28.9 75 23.9 74 74 SE 3 6 30.07 1018 10 16 0.00 0.00
3:53 pm 15:53 Sunny 85 29.4 75 23.9 72 72 ESE 8 13 30.05 1018 10 16 0.00 0.00
4:53 pm 16:53 Sunny 84 28.9 75 23.9 74 74 SSE 8 13 30.02 1017 10 16 0.00 0.00
5:53 pm 17:53 Sunny 85 29.4 74 23.3 70 70 SE 6 9 30.01 1016 10 16 0.00 0.00
6:53 pm 18:53 Sunny 84 28.9 75 23.9 74 74 SE 7 11 30.01 1016 10 16 0.00 0.00
7:53 pm 19:53 Sunny 80 26.7 75 23.9 85 85 SE 6 9 30.02 1017 10 16 0.00 0.00
8:53 pm 20:53 Clear 79 26.1 76 24.4 90 90 E 5 7 30.03 1017 10 16 0.00 0.00
9:53 pm 21:53 Clear 78 25.6 75 23.9 90 90 ESE 5 7 30.04 1017 10 16 0.00 0.00
10:53 pm 22:53 Clear 77 25 74 23.3 90 90 SE 5 7 30.05 1018 10 16 0.00 0.00
11:53 pm 23:53 Clear 77 25 74 23.3 90 90 WNW 3 6 30.04 1017 10 16 0.00 0.00

Powered by AerisWeather